Weather History for KCDR - August, 2014

Change the Weather History Date:

Monday, August 4, 2014

  Actual Average Record
Temperature  
Mean Temperature 79 °F 74 °F  
Max Temperature 96 °F 91 °F 104 °F (1947)
Min Temperature 62 °F 58 °F 42 °F (1974)
Degree Days  
Heating Degree Days 0 0  
Month to date heating degree days 0 0  
Since 1 June heating degree days 94 91  
Since 1 July heating degree days 11 10  
Cooling Degree Days 14 10  
Month to date cooling degree days 43 40  
Year to date cooling degree days 387 444  
Since 1 June cooling degree days 356 424  
Growing Degree Days 30 (Base 50)    
Moisture  
Dew Point 60 °F    
Average Humidity 60    
Maximum Humidity 93    
Minimum Humidity 26    
Precipitation  
Precipitation 0.14 in 0.06 in 1.12 in (1966)
Month to date precipitation 0.52 0.24  
Year to date precipitation 12.31 12.53  
Sea Level Pressure  
Sea Level Pressure 29.98 in    
Wind  
Wind Speed 8 mph (NNE)    
Max Wind Speed 26 mph    
Max Gust Speed 35 mph    
Visibility 10 miles    
Events Rain , Thunderstorm    
T = Trace of Precipitation, MM = Missing Value Source: NWS Daily Summary

Daily Weather History Graph

Daily Weather History Graph

Search for Another Location

Airport or City:

Trip Planner

Search our weather history database for the weather conditions in past years. The results will help you decide how hot, cold, wet, or windy it might be!

Date:

Astronomy

Aug. 04, 2014 Rise Set
Actual Time 5:46 AM MDT 8:09 PM MDT
Civil Twilight 5:15 AM MDT 8:41 PM MDT
Nautical Twilight 4:35 AM MDT 9:20 PM MDT
Astronomical Twilight 3:51 AM MDT 10:04 PM MDT
Moon 2:23 PM MDT (8/4) No Moon Set
Length of Visible Light 15h 25m
Length of Day
14h 22m
First Quarter, 58% of the Moon is Illuminated
Aug 4
First Quarter
Aug 10
Full
Aug 17
Last Quarter
Aug 25
New
Sep 2
First Quarter

Hourly Weather History & Observations

Time (MDT) Temp. Heat Index Dew Point Humidity Pressure Visibility Wind Dir Wind Speed Gust Speed Precip Events Conditions
12:53 AM 75.9 °F - 55.0 °F 48% 29.95 in 10.0 mi North - - N/A   Clear
1:53 AM 71.1 °F - 55.9 °F 59% 29.95 in 10.0 mi North 9.2 mph - N/A   Clear
3:53 AM 64.9 °F - 57.0 °F 75% 29.96 in 10.0 mi ESE 10.4 mph - N/A   Clear
4:53 AM 64.0 °F - 57.0 °F 78% 29.96 in 10.0 mi SE 11.5 mph - N/A   Clear
6:53 AM 64.9 °F - 59.0 °F 81% 30.00 in 10.0 mi ENE 4.6 mph - N/A   Clear
7:53 AM 69.1 °F - 60.1 °F 73% 30.00 in 10.0 mi SE 4.6 mph - N/A   Clear
8:53 AM 73.9 °F - 59.0 °F 59% 29.99 in 10.0 mi SSW 4.6 mph - N/A   Clear
9:53 AM 75.9 °F - 60.1 °F 58% 29.98 in 10.0 mi NNW 5.8 mph - N/A   Clear
10:53 AM 82.0 °F 82.0 °F 57.9 °F 44% 29.97 in 10.0 mi Calm Calm - N/A   Clear
11:53 AM 86.0 °F 85.4 °F 59.0 °F 40% 29.95 in 10.0 mi NE 4.6 mph - N/A   Clear
12:53 PM 89.1 °F 88.8 °F 60.1 °F 38% 29.92 in 10.0 mi ENE 8.1 mph - N/A   Clear
1:53 PM 91.9 °F 91.2 °F 59.0 °F 33% 29.89 in 10.0 mi NNE 8.1 mph - N/A   Clear
2:53 PM 93.9 °F 92.6 °F 57.0 °F 29% 29.87 in 10.0 mi NNE 11.5 mph - N/A   Clear
3:53 PM 95.0 °F 93.4 °F 55.9 °F 27% 29.87 in 10.0 mi NE 15.0 mph - N/A   Clear
4:53 PM 91.0 °F 89.7 °F 57.0 °F 32% 29.87 in 10.0 mi NNE 13.8 mph - N/A   Clear
5:10 PM 90.0 °F 88.8 °F 57.9 °F 34% 29.95 in 10.0 mi NNE 20.7 mph 27.6 mph N/A Thunderstorm Clear
5:25 PM 87.1 °F 87.5 °F 62.1 °F 43% 29.95 in 10.0 mi NNE 23.0 mph 32.2 mph N/A   Clear
5:53 PM 84.0 °F 84.9 °F 63.0 °F 49% 29.90 in 10.0 mi NNE 15.0 mph 29.9 mph N/A   Clear
6:10 PM 82.9 °F 84.0 °F 63.0 °F 51% 29.99 in 10.0 mi NE 19.6 mph - N/A Thunderstorm Thunderstorm
6:22 PM 80.1 °F 80.6 °F 57.9 °F 47% 30.03 in 10.0 mi South 26.5 mph 34.5 mph N/A Thunderstorm Thunderstorm
6:29 PM 77.0 °F - 57.9 °F 52% 30.05 in 10.0 mi SW 20.7 mph 34.5 mph N/A Thunderstorm Mostly Cloudy
6:33 PM 75.0 °F - 59.0 °F 57% 30.06 in 9.0 mi WSW 20.7 mph 33.4 mph 0.00 in Rain , Thunderstorm Light Thunderstorms and Rain
6:53 PM 66.9 °F - 64.0 °F 90% 30.04 in 2.5 mi WSW 11.5 mph - 0.08 in Rain , Thunderstorm Heavy Thunderstorms and Rain
7:05 PM 66.9 °F - 62.1 °F 84% 30.09 in 7.0 mi WNW 15.0 mph - 0.02 in Rain , Thunderstorm Light Thunderstorms and Rain
7:09 PM 66.9 °F - 62.1 °F 84% 30.08 in 8.0 mi WNW 13.8 mph - 0.02 in Rain , Thunderstorm Light Rain
7:38 PM 66.2 °F - 62.6 °F 88% 30.07 in 10.0 mi WNW 9.2 mph - N/A Rain Light Rain
7:53 PM 66.9 °F - 63.0 °F 87% 30.01 in 10.0 mi North - - 0.04 in Rain Light Rain
8:53 PM 66.0 °F - 63.0 °F 90% 30.00 in 10.0 mi NNE 13.8 mph - 0.02 in Rain Light Rain
9:53 PM 66.0 °F - 62.1 °F 87% 30.01 in 10.0 mi ENE 6.9 mph - 0.00 in   Scattered Clouds
10:53 PM 64.9 °F - 62.1 °F 90% 29.99 in 10.0 mi West 4.6 mph - N/A   Partly Cloudy
11:53 PM 64.9 °F - 63.0 °F 93% 29.99 in 10.0 mi SSW 4.6 mph - N/A   Mostly Cloudy